Location: Edmonton
(53.5500°N, 113.5000°W)
Time: 00:30:11
(UTC-06:00)

Daily predictions for brighter satellites

Satellite Brightness Start Highest point End
(mag) Time Altitude Azimuth Time Altitude Azimuth Time Altitude Azimuth
H-2A R/B 3.8 00:00:44 13° SW 00:03:59 23° W 00:07:55 10° NW
Cosmos 2369 Rocket 3.8 00:01:42 10° NNW 00:06:40 29° NE 00:10:38 14° E
Cosmos 1842 4.1 00:03:02 10° NNW 00:06:46 42° W 00:07:28 38° WSW
Cosmos 1666 3.5 00:05:46 36° WSW 00:06:53 47° WNW 00:10:39 10° N
ALOS 2 3.4 00:07:50 37° E 00:08:34 40° ENE 00:12:41 10° N
Cosmos 2181 Rocket 4.1 00:03:33 10° NNW 00:10:02 78° W 00:12:39 38° S
Cosmos 2237 Rocket 2.3 00:09:10 47° SSE 00:10:11 54° ESE 00:15:40 10° NE
Cosmos 1340 Rocket 3.2 00:07:34 10° N 00:11:24 47° ENE 00:11:27 47° ENE
Cosmos 1980 3.7 00:15:03 48° S 00:16:26 63° ESE 00:22:05 10° NE
Cosmos 1709 Rocket 4.0 00:14:58 36° SSW 00:17:42 84° W 00:24:01 10° N
CZ-4B R/B 4.4 00:15:45 10° NNE 00:20:09 72° ESE 00:20:25 69° SE
Cosmos 1953 Rocket 3.4 00:17:22 10° NNW 00:21:54 88° WSW 00:22:23 71° S
H-2A R/B 2.8 00:21:12 38° SW 00:22:00 42° W 00:26:13 10° NNW
Cosmos 1726 Rocket 3.8 00:22:04 52° E 00:22:06 52° E 00:26:27 10° NNE
Spot 4 4.3 00:21:44 42° SW 00:22:49 50° W 00:27:29 10° NNW
Cosmos 389 Rocket 4.4 00:24:17 22° ENE 00:24:17 22° ENE 00:26:18 10° NE
Cosmos 1992 Rocket 3.9 00:25:06 44° SSW 00:26:50 85° WNW 00:32:07 10° NNE
Cosmos 2297 3.7 00:24:09 10° NW 00:29:48 71° WSW 00:31:07 52° S
Cosmos 968 Rocket 4.0 00:26:42 10° NW 00:31:35 46° WSW 00:32:32 41° SW
Aureole 2 Rocket 3.7 00:31:18 33° WNW 00:31:38 34° WNW 00:34:35 10° N
Meteor 2-13 Rocket 4.4 00:35:37 48° S 00:37:27 80° E 00:43:37 10° NNE
deb Chang Zheng 4 3.7 00:34:27 10° NNE 00:38:51 72° WNW 00:39:27 61° SW
Cosmos 1271 Rocket 3.4 00:42:46 46° NE 00:42:46 46° NE 00:45:44 10° NNE
Cosmos 2278 Rocket 3.4 00:38:28 10° NW 00:43:18 30° WSW 00:44:36 27° SW
CZ-4 R/B 4.1 00:39:12 10° N 00:43:55 63° WNW 00:45:12 45° SW
Cosmos 972 Rocket 4.3 00:43:48 41° SW 00:45:53 77° WNW 00:52:10 10° NNE
Cosmos 1606 Rocket 3.5 00:47:24 74° SW 00:47:43 80° W 00:52:12 10° N
GEOS 3 Rocket 4.4 00:45:46 21° E 00:49:00 49° NNE 00:54:08 10° NW
Mayak 0.1 00:45:31 10° NNE 00:48:32 27° ENE 00:48:32 27° ENE
DNEPR-1 R/B 4.4 00:45:28 10° NW 00:49:13 40° WSW 00:49:13 40° WSW
Cosmos 2154 Rocket 4.4 00:49:40 41° SE 00:51:01 47° E 00:56:55 10° NNE
Cosmos 1356 Rocket 3.7 00:47:34 10° N 00:51:22 54° ENE 00:51:22 54° ENE
ATLAS 2AS CENTAUR R/B 4.0 00:47:35 10° W 00:55:23 50° NNW 01:03:16 10° NE
Lacrosse 5 2.2 00:51:28 10° W 00:56:31 64° NNW 01:01:35 10° ENE
Cosmos 2327 Rocket 4.4 00:55:12 51° S 00:56:57 80° E 01:03:15 10° NNE
CZ-4B R/B 3.6 00:54:12 10° N 00:58:55 63° WNW 00:59:55 50° WSW
NOSS 2-2 (E) 4.5 01:00:57 38° E 01:00:57 38° E 01:04:42 10° NE
ERBS 3.5 00:56:36 10° WNW 00:59:17 42° NNW 00:59:17 42° NNW
CENTAUR R/B 3.4 00:54:56 10° NW 01:02:19 50° WSW 01:04:41 40° SSW
ATLAS CENTAUR R/B 2.6 00:59:53 10° NW 01:02:04 29° WNW 01:02:04 29° WNW
CZ-2C R/B 2.6 00:58:22 10° NNE 01:03:47 82° ESE 01:04:45 61° S
NOSS 3-4 (A) 3.5 01:00:35 24° SW 01:04:38 83° NW 01:11:21 10° NE
NOSS 3-4 (C) 3.5 01:00:45 25° SW 01:04:44 83° NW 01:11:27 10° NE
NOSS 0 Rocket 4.2 01:04:30 27° SW 01:08:02 66° NW 01:14:17 10° NNE
Cosmos 2219 Rocket 3.1 01:04:33 16° WSW 01:08:53 45° NW 01:14:19 10° NNE
Cosmos 1818 4.4 01:05:07 10° WSW 01:10:24 49° NW 01:15:43 10° NE
Meteor 1-24 Rocket 3.8 01:06:04 10° NNW 01:11:53 80° W 01:13:08 57° S
Cosmos 2058 Rocket 3.0 01:12:24 74° W 01:12:30 74° WNW 01:16:55 10° N
Cosmos 2228 3.0 01:13:48 78° W 01:13:49 78° WNW 01:18:16 10° N
CZ-2C R/B 3.5 01:13:35 40° WSW 01:13:58 41° W 01:18:34 10° NNW
Meteor 2-5 Rocket 4.2 01:09:03 10° NNW 01:14:45 52° W 01:16:04 44° SW
SL-16 R/B 2.1 01:17:27 63° S 01:18:17 75° ESE 01:23:58 10° NE
USA 215 3.1 01:18:24 42° SE 01:20:48 72° SSW 01:27:22 10° WNW
COSMOS 2428 4.5 01:17:55 10° W 01:22:56 30° NW 01:27:57 10° NNE
Cosmos 1805 4.3 01:26:19 39° ENE 01:26:19 39° ENE 01:29:24 10° NNE
RESURS DK-1 2.7 01:25:47 58° WNW 01:25:57 59° NW 01:30:06 10° NNE
Cosmos 1674 3.4 01:24:33 10° N 01:27:57 48° NE 01:27:57 48° NE
Cosmos 1943 Rocket 2.7 01:26:03 10° NNW 01:31:27 52° NE 01:33:47 32° ESE
COSMOS 2455 3.6 01:26:55 10° NW 01:32:20 35° WSW 01:32:39 35° WSW
Cosmos 2084 Rocket 4.1 01:34:19 42° ENE 01:34:19 42° ENE 01:37:03 10° NE
Cosmos 1766 3.5 01:34:14 68° NNE 01:34:14 68° NNE 01:37:47 10° NNE
Cosmos 1076 Rocket 4.1 01:29:57 10° N 01:34:10 47° ENE 01:34:21 46° E
Cosmos 1953 3.5 01:34:47 33° ENE 01:34:47 33° ENE 01:37:53 10° NNE
Cosmos 2333 Rocket 3.4 01:31:37 15° WSW 01:35:55 38° NW 01:41:12 10° NNE
Cosmos 2184 Rocket 4.4 01:35:09 39° SW 01:37:13 55° WNW 01:43:20 10° N
Cosmos 2074 Rocket 4.5 01:37:24 36° SW 01:39:38 52° WNW 01:45:45 10° N
KORONAS-FOTON 4.5 01:38:29 10° N 01:42:01 50° NE 01:42:01 50° NE
Nadezhda 3 Rocket 4.2 01:36:38 10° NNW 01:42:52 59° W 01:44:24 47° SW
ALOS 2 3.8 01:45:14 30° W 01:45:14 30° W 01:48:54 10° NNW
CZ-4B R/B 2.9 01:46:28 35° N 01:46:28 35° N 01:48:26 10° N
Spot 2 4.2 01:42:34 10° NNE 01:46:47 68° E 01:46:47 68° E
Cosmos 1758 3.8 01:49:59 54° ENE 01:49:59 54° ENE 01:53:38 10° NNE
Cosmos 2369 Rocket 2.1 01:45:37 10° NNW 01:51:22 82° WSW 01:52:24 61° SSE
Cosmos 2341 Rocket 3.9 01:52:25 54° S 01:54:00 89° ESE 02:00:17 10° N
Cosmos 2237 Rocket 3.3 01:50:57 19° WSW 01:54:29 39° NW 01:59:46 10° NNE
Cosmos 858 Rocket 4.4 01:49:31 10° NNW 01:54:51 89° WSW 01:55:37 67° SSE
Meteor 1-21 Rocket 4.2 01:49:47 10° NNW 01:55:45 89° W 01:57:04 57° S
Cosmos 389 Rocket 4.0 01:58:17 31° WNW 01:58:17 31° WNW 02:01:18 10° N
Cosmos 2208 Rocket 4.0 01:58:22 61° SSE 01:59:00 67° ESE 02:04:25 10° NNE
Landsat 5 3.5 01:59:20 81° NW 01:59:20 81° NW 02:03:31 10° NNW
NOSS 2-2 (D) 3.6 02:04:42 70° W 02:05:07 77° NW 02:10:21 10° NE
Meteor 2-15 Rocket 4.4 01:58:59 10° N 02:05:10 86° ENE 02:06:47 52° SSE
Cosmos 1295 Rocket 4.4 02:03:45 53° SSW 02:05:21 87° W 02:11:38 10° N
Cosmos 1626 4.2 02:04:11 10° NNE 02:07:07 21° ENE 02:07:57 20° E
Cosmos 371 Rocket 4.0 02:08:47 41° ESE 02:08:56 41° ESE 02:13:30 10° NE
Okean 3 Rocket 3.6 02:04:34 10° NNW 02:09:04 70° W 02:09:04 70° W
Cosmos 1943 3.8 02:08:41 39° SE 02:09:23 41° ESE 02:14:40 10° NE
Cosmos 1812 Rocket 3.7 02:10:42 60° WNW 02:10:44 60° WNW 02:15:05 10° N
Cosmos 1763 Rocket 4.5 02:15:42 31° ESE 02:16:15 32° ESE 02:20:43 10° NE
Cosmos 1727 Rocket 3.9 02:10:17 10° N 02:16:31 83° E 02:18:23 48° SSE
Cosmos 2366 rocket 4.1 02:15:43 47° SSE 02:17:33 70° E 02:23:53 10° NNE
SL-24 R/B 4.5 02:18:18 51° W 02:18:18 51° W 02:22:20 10° NNW
Cosmos 2344 4.4 02:08:44 10° NW 02:18:38 81° SW 02:32:21 10° SE
Iridium 4 Rocket 3.5 02:19:35 48° W 02:19:39 49° W 02:23:50 10° N
Cosmos 1733 3.6 02:20:35 60° NE 02:20:35 60° NE 02:23:55 10° NNE
Cosmos 1544 4.3 02:22:31 35° NW 02:22:31 35° NW 02:25:34 10° N
Cosmos 1937 Rocket 3.4 02:17:04 10° NNW 02:22:20 66° WSW 02:22:51 62° SW
Cosmos 2151 4.3 02:20:48 10° N 02:24:41 34° ENE 02:25:51 29° ESE
Mayak -0.3 02:21:04 10° N 02:24:55 37° WNW 02:25:11 37° WNW
Cosmos 1689 Rocket 4.2 02:26:47 25° NW 02:26:47 25° NW 02:28:20 10° NNW
NOSS 2-2 (C) 4.1 02:24:31 46° W 02:25:36 60° NW 02:30:52 10° NE
GEOS 3 Rocket 3.6 02:26:52 56° SW 02:27:02 57° SW 02:32:16 10° NW
Cosmos 1898 Rocket 3.9 02:22:19 10° NW 02:27:22 46° WSW 02:27:26 46° WSW
Cosmos 1766 Rocket 3.4 02:26:10 10° NNW 02:30:35 79° W 02:30:37 79° WSW
SL-14 R/B 3.3 02:27:05 10° N 02:31:06 81° NE 02:31:06 81° NE
Cosmos 1408 Rocket 3.4 02:32:22 10° NNW 02:36:45 75° W 02:36:46 75° WSW
Cosmos 1743 Rocket 3.9 02:32:48 10° N 02:37:15 61° ENE 02:38:02 51° ESE
Cosmos 1125 Rocket 3.9 02:32:28 10° NNW 02:37:39 59° ENE 02:40:23 27° SE
Cosmos 1570 Rocket 4.2 02:36:51 48° WSW 02:38:05 62° WNW 02:43:19 10° NNE
Cosmos 468 Rocket 3.9 02:39:06 61° S 02:39:57 78° ESE 02:45:09 10° NNE
Lacrosse 5 2.2 02:34:54 10° WNW 02:39:58 64° NNE 02:45:01 10° E
Cosmos 2263 4.3 02:35:54 10° NW 02:41:19 51° WSW 02:41:47 50° SW
ATLAS CENTAUR R/B 4.4 02:35:22 10° WNW 02:41:08 20° W 02:41:08 20° W
Cosmos 990 Rocket 4.1 02:37:19 10° NNW 02:42:25 52° WSW 02:42:42 51° WSW
Cosmos 1470 2.8 02:42:49 73° NW 02:42:49 73° NW 02:46:29 10° N
CZ-2C R/B 4.4 02:39:26 10° N 02:43:32 23° NW 02:46:16 16° W
SL-08 R/B 3.9 02:45:43 33° SE 02:47:37 55° ENE 02:52:20 10° N
ATLAS 2AS CENTAUR R/B 4.3 02:40:28 10° WNW 02:48:07 41° N 02:55:38 10° ENE
Helios 1A Rocket 4.1 02:44:44 10° NNE 02:48:29 33° E 02:49:05 31° ESE
Cosmos 1703 4.0 02:45:46 10° N 02:49:36 48° ENE 02:50:18 42° ESE
Meteor 2-14 Rocket 4.4 02:48:22 47° SSW 02:50:15 76° WNW 02:56:27 10° N
Cosmos 1959 Rocket 4.5 02:48:32 46° SW 02:50:22 69° WNW 02:56:30 10° N
USA 229 DEB 3.7 02:44:01 10° NW 02:51:10 87° SW 02:58:27 10° SE
USA 229 3.7 02:44:08 10° NW 02:51:16 87° SW 02:58:33 10° SE
Cosmos 2150 Rocket 4.5 02:48:30 10° NW 02:53:20 41° WSW 02:53:23 41° WSW
Cosmos 1603 3.9 02:51:58 42° WSW 02:53:48 65° NW 02:59:25 10° NNE
Cosmos 1242 Rocket 3.9 02:53:59 30° E 02:54:07 30° E 02:57:15 10° NNE
NOSS 3-1 (A) 4.4 02:48:49 10° NW 02:55:50 61° NNE 03:03:50 10° ESE
BREEZE-M DEB (TANK) 4.4 02:56:05 38° SSE 02:57:00 41° SE 03:09:09 10° ENE
PSLV R/B 3.6 02:52:39 10° NNE 02:57:19 85° WNW 02:58:00 65° SSW
Cosmos 1328 3.9 02:55:06 10° NNW 02:58:50 60° WNW 02:58:50 60° WNW
SL-16 R/B 3.6 02:59:18 16° W 03:02:58 31° NW 03:07:59 10° NNE
Cosmos 1814 Rocket 3.9 03:02:35 52° SSW 03:03:54 85° ESE 03:09:10 10° NNE
USA 215 4.2 03:05:44 27° WSW 03:05:44 27° WSW 03:10:08 10° WNW
Cosmos 841 Rocket 3.7 03:04:43 45° SSE 03:06:04 61° ESE 03:11:12 10° NNE
H-2A R/B 2.2 03:02:42 10° N 03:06:33 69° WNW 03:06:42 68° W
Cosmos 2123 Rocket 4.4 03:00:25 10° N 03:06:39 61° ENE 03:11:00 20° SSE
Meteor 1-11 4.1 03:01:53 10° NNW 03:07:31 76° W 03:09:23 44° S
Resurs 1-4 Rocket 3.6 03:03:04 10° NE 03:07:33 28° E 03:10:36 17° SE
Cosmos 1953 3.6 03:10:31 27° WNW 03:10:45 28° WNW 03:14:13 10° N
USA 32 4.1 03:08:28 10° N 03:13:45 77° E 03:15:58 36° SSE
ADEOS Rocket 3.0 03:08:26 10° NNE 03:13:55 61° ESE 03:16:09 35° SSE
Cosmos 1821 Rocket 4.2 03:11:01 31° SSE 03:14:02 64° E 03:20:09 10° NNE
Cosmos 1943 Rocket 2.7 03:10:05 10° NW 03:15:04 36° WSW 03:15:16 36° WSW
Cosmos-2242 3.2 03:17:46 52° WSW 03:18:24 58° WNW 03:22:47 10° N
Iridium 2 3.9 03:18:10 53° SE 03:18:47 63° E 03:22:37 10° NNE
Cosmos 1656 Rocket 3.6 03:13:11 10° NW 03:18:50 68° WSW 03:21:12 35° S
ARIANE 5 R/B 4.1 03:14:19 10° NNE 03:18:52 29° E 03:22:15 15° SE
Cosmos 1500 Rocket 3.5 03:16:34 10° NNW 03:20:58 70° W 03:21:45 56° SSW
PSLV R/B 4.0 03:21:15 57° WSW 03:21:27 58° WSW 03:25:31 10° NNW
Cosmos 2058 2.8 03:17:26 10° NNW 03:21:34 77° W 03:22:08 63° SSW
SL-16 R/B 2.6 03:18:25 19° SSE 03:23:00 79° ENE 03:29:14 10° NNW
NOSS 3-1 (C) 4.0 03:17:23 10° NW 03:24:37 85° NE 03:32:49 10° SE
Cosmos 1934 Rocket 4.3 03:21:39 27° SSE 03:24:58 60° E 03:30:56 10° NNE
CZ-2D R/B 3.3 03:20:22 10° NNE 03:25:21 37° E 03:28:34 19° SSE
Cosmos 332 Rocket 4.5 03:25:51 34° WSW 03:27:28 45° NW 03:32:12 10° NNE
Meteor 2-1 Rocket 4.4 03:28:22 30° SSE 03:31:02 64° E 03:36:30 10° NNE
SL-24 R/B - RUBIN 2 4.4 03:29:11 33° SW 03:32:14 79° NW 03:38:10 10° NE
Cosmos 2369 Rocket 3.8 03:30:55 10° WNW 03:34:09 17° W 03:34:09 17° W
Cosmos 1626 2.7 03:39:08 10° NNW 03:42:35 41° W 03:42:35 41° W
Cosmos 1605 Rocket 4.5 03:38:40 20° SSE 03:43:10 59° E 03:49:27 10° NNE
MOS 1 Rocket 4.3 03:39:54 10° NNE 03:43:57 37° E 03:46:36 19° SSE
Cosmos 372 Rocket 4.1 03:40:25 10° NNW 03:45:27 54° WSW 03:47:21 35° SSW
Cosmos 2221 2.9 03:44:23 31° SSE 03:46:15 60° E 03:50:31 10° NNE
IRS-1D 4.1 03:42:41 10° NNE 03:47:42 51° E 03:50:58 22° SSE
Cosmos 1666 Rocket 4.2 03:43:33 10° N 03:47:55 56° ENE 03:51:40 14° SSE
Cosmos 371 Rocket 4.3 03:47:27 26° W 03:49:27 37° NW 03:54:00 10° NNE
Cosmos 1805 Rocket 3.6 03:45:07 10° N 03:49:36 82° ENE 03:52:06 26° SSE
Cosmos 1315 Rocket 3.3 03:47:15 10° N 03:51:18 59° ENE 03:54:16 17° SSE
Cosmos 1943 3.8 03:50:29 26° WSW 03:53:24 48° NW 03:58:56 10° NNE
Cosmos 540 Rocket 3.5 03:53:20 33° SSW 03:55:42 78° ESE 04:00:51 10° NNE
Spot 4 Rocket 4.4 03:51:42 10° NNE 03:56:51 61° ESE 04:00:06 22° S
CBERS-1 4.0 03:52:25 10° NNE 03:57:34 80° WNW 04:00:03 31° SSW
Cosmos 1763 Rocket 3.9 03:55:43 29° WSW 03:57:55 48° NW 04:02:52 10° NNE
AQUA 3.8 03:53:15 10° NNE 03:58:04 84° WNW 04:00:15 33° SSW
BREEZE-M DEB (TANK) 4.4 03:55:03 28° SW 03:58:26 64° SSE 04:22:41 10° E
Cosmos 1726 3.5 03:57:13 18° SSE 03:59:26 35° E 04:02:52 10° NNE
Cosmos 2151 3.9 03:58:13 10° NNW 04:01:56 30° W 04:02:25 29° WSW
ADEOS 4.1 04:00:04 10° NNE 04:05:12 54° E 04:09:06 17° S
BREEZE-M DEB (TANK) 3.9 04:00:04 10° WSW 04:08:21 35° SSW 04:10:59 10° ESE
Cosmos 1842 Rocket 4.1 04:07:33 31° WSW 04:09:00 42° WNW 04:13:10 10° N
UNK 3.9 04:08:23 31° SSW 04:10:15 49° W 04:14:43 10° NNW
Cosmos 1447 Rocket 4.4 04:09:02 10° NNW 04:15:14 83° W 04:21:27 10° S
UNKNOWN OBJECT B 3.9 04:12:14 10° NNE 04:16:08 42° E 04:19:22 14° SSE
Cosmos 304 Rocket 4.1 04:14:19 28° WSW 04:16:37 52° WNW 04:21:19 10° NNE
Cosmos 2098 Rocket 3.6 04:14:11 27° SSW 04:17:04 58° WNW 04:21:30 10° N
Cosmos 1656 4.2 04:12:48 10° NNW 04:18:29 62° NE 04:24:08 10° SE
Cosmos 2369 3.9 04:13:11 10° NNW 04:18:52 75° NE 04:24:31 10° SE
Sich 1 2.9 04:14:49 10° NNW 04:19:15 78° W 04:22:30 18° S
Cosmos 1125 Rocket 4.5 04:15:04 10° NW 04:19:25 27° W 04:20:36 25° WSW
Cosmos 1400 Rocket 3.3 04:18:00 10° NNW 04:21:40 38° W 04:22:48 31° SW
Lacrosse 5 1.8 04:18:01 10° WNW 04:23:03 64° SSW 04:28:03 10° SE
Helios 1A Rocket 3.9 04:20:01 10° N 04:23:43 33° WNW 04:25:22 24° WSW
In-Cosmos 22 Rocket 4.3 04:18:46 10° N 04:24:14 75° ENE 04:29:33 10° SSE
MOZ.5/SAFIR/RUBIN 5/SL-8 3.7 04:21:26 14° S 04:25:28 71° WSW 04:30:12 10° NNW
SL-08 R/B 4.5 04:24:43 23° WSW 04:25:48 25° W 04:29:45 10° NW
ERS-1 4.4 04:22:19 10° NNE 04:27:18 78° WNW 04:30:36 21° SSW
Gblst 52 Del rocket 4.2 04:23:09 20° WSW 04:27:23 70° S 04:32:53 10° E
IRS-1C 4.3 04:23:32 10° N 04:28:48 60° WNW 04:32:12 22° SW
NPP 4.1 04:23:54 10° N 04:29:03 47° WNW 04:32:17 22° SW
Cosmos 1242 Rocket 3.9 04:28:07 22° W 04:29:06 26° WNW 04:32:08 10° N
Cosmos 2285 Rocket 4.1 04:28:21 18° SSW 04:33:16 81° ESE 04:39:43 10° NNE
USA 161 2.6 04:31:50 11° SE 04:33:31 28° ENE 04:35:13 10° N
Cosmos 1470 Rocket 3.6 04:36:14 10° N 04:40:35 79° ENE 04:44:54 10° SSE
ATLAS 2AS CENTAUR R/B 3.6 04:32:30 10° NW 04:40:37 62° NNE 04:48:19 10° ESE
Cosmos 2173 Rocket 4.4 04:38:36 10° S 04:44:51 67° E 04:51:11 10° NNE
Cosmos 1538 Rocket 4.5 04:42:01 12° S 04:46:57 60° ESE 04:52:14 10° NNE
NOSS 3-1 (A) 4.1 04:39:48 10° NW 04:47:00 57° SW 04:55:03 10° SSE
Resurs 1-4 Rocket 2.3 04:42:34 10° N 04:47:44 57° WNW 04:51:40 17° SW
Cosmos 1633 Rocket 3.3 04:46:34 10° NNW 04:50:47 47° W 04:54:31 13° SSW
Cosmos 1908 4.2 04:50:09 20° WSW 04:52:04 32° WNW 04:55:34 10° N
COSMOS 2406 3.3 04:49:25 18° SW 04:53:47 74° NW 04:59:32 10° NNE
Cosmos 1515 Rocket 4.1 04:51:17 10° S 04:55:36 58° E 05:00:00 10° NNE
BREEZE-M DEB (TANK) 3.7 04:54:20 19° SW 04:56:17 31° S 05:02:37 10° ESE
Cosmos 1300 2.6 04:53:30 15° SSW 04:56:38 77° W 05:00:30 10° N
ARIANE 5 R/B 2.8 04:53:10 10° N 04:58:17 55° WNW 05:02:35 14° SW
ADEOS Rocket 3.9 04:54:32 10° N 04:59:11 28° WNW 05:03:07 13° WSW
Cosmos 2228 Rocket 3.3 04:55:00 10° S 04:59:27 74° E 05:03:53 10° NNE
Cosmos 1980 Rocket 2.9 04:54:22 10° NNW 04:59:56 57° NE 05:05:27 10° SE
Cosmos 1459 Rocket 4.0 04:58:59 10° S 05:05:05 89° ESE 05:11:11 10° N
CZ-2D R/B 2.7 05:00:27 10° N 05:05:33 44° WNW 05:09:54 14° SW
Meteor 2-2 Rocket 4.4 05:00:36 10° S 05:06:36 90° ESE 05:12:42 10° NNE
SL-16 R/B 3.6 05:03:31 14° SW 05:07:19 24° W 05:12:15 10° NW
Cosmos 2278 3.8 05:02:19 10° NW 05:07:51 56° WSW 05:13:20 10° S
SL-27 R/B 2.5 05:06:12 16° SW 05:08:46 62° WNW 05:12:13 10° NNE
Cosmos 1455 3.5 05:09:07 10° SSE 05:12:37 39° E 05:16:10 10° NNE
Cosmos 1697 Rocket 2.7 05:09:13 10° NNW 05:14:55 81° WSW 05:20:35 10° SSE
Cosmos 1328 Rocket 3.6 05:15:19 10° SSW 05:19:37 65° WNW 05:23:59 10° N
MOS 1 Rocket 4.1 05:18:23 10° N 05:22:12 31° WNW 05:25:54 11° SW
Cosmos 2221 4.1 05:21:16 11° WSW 05:24:15 20° WNW 05:27:28 10° NNW
Cosmos 1315 Rocket 4.5 05:24:49 10° NW 05:27:26 17° W 05:29:55 10° SW
Cosmos 2056 Rocket 3.9 05:27:37 10° NNW 05:32:59 72° ENE 05:38:24 10° SSE
Cosmos 1933 Rocket 4.1 05:30:19 10° NNW 05:34:28 38° W 05:38:35 10° SSW
ADEOS II 2.2 05:29:16 10° NNE 05:34:34 82° ESE 05:39:50 10° SSW
Cosmos 1726 3.5 05:31:50 10° WSW 05:34:51 24° WNW 05:37:58 10° NNW
Cosmos 773 Rocket 4.1 05:31:48 10° SSW 05:37:06 77° WNW 05:42:26 10° NNE
Cosmos 2061 Rocket 4.2 05:31:00 10° SSW 05:37:23 66° WNW 05:43:47 10° N
COSMOS 2487 3.1 05:35:22 10° S 05:38:50 57° ESE 05:42:21 10° NNE
Cosmos 2082 Rocket 2.8 05:33:53 10° S 05:39:22 56° ESE 05:44:54 10° NE
PSLV R/B 4.0 05:39:26 10° NNE 05:43:37 88° ESE 05:47:46 10° SSW
Cosmos 2016 Rocket 4.0 05:41:36 10° SSW 05:47:40 67° WNW 05:53:46 10° N
Cosmos 1151 Rocket 3.2 05:43:42 10° SSW 05:47:55 57° WNW 05:52:09 10° N
Cosmos 1869 4.4 05:44:14 10° S 05:48:03 48° E 05:51:56 10° NNE
Cosmos 1892 3.5 05:45:30 10° NNW 05:48:57 32° W 05:52:23 10° SSW
Cosmos 2360 4.2 05:44:37 10° NW 05:50:21 81° WSW 05:56:02 10° SSE
UNKNOWN OBJECT B 4.2 05:47:04 10° N 05:50:28 26° WNW 05:53:52 10° WSW
CZ-2D R/B 4.5 05:47:15 10° N 05:50:43 28° WNW 05:54:08 10° WSW
CZ-4B R/B 3.7 05:45:16 10° NNE 05:50:46 64° ESE 05:56:07 10° S
Meteor 2-3 Rocket 4.1 05:46:02 10° NNW 05:51:20 43° W 05:56:39 10° SSW
